Showing default

FLOCK 4G 5, 62663

Orbit data source: Space-Track

FLOCK 4G 5, 62663 is a payload satellite owned by Planet (US) in SSO that was launched on Tue, 14 Jan 2025 UTC via an FALCON 9 launch vehicle from the Air Force Western Test Range (AFWTR). Payload-class satellites include a variety of spacecraft equipped with specific instruments for various scientific and technological missions. These include communications satellites like Starlink; space stations such as the ISS; scientific satellites like the Hubble; Earth observation satellites from companies like Planet Labs, Umbra, and HawkEye 360; GPS; miniature CubeSats for education and research; and military/defense satellites.

Loading next visibility...
Identifier
62663, 2025-009BG
Orbit
SSO
Country
Flag of USUS
Related business
Manufacturer
Planet
Mission
Operational Commercial Imaging
Bus & Motor
CUBESAT 3U, Unknown motor
Mass
5.7 kg wet, 5.7 kg dry
Launch date (UTC)
2025-01-14 (1 year ago)
Launch vehicle
FALCON 9
Launch site
Air Force Western Test Range (AFWTR)
Object type
Payload
Rocket body
Debris
Shape & HBR
Box + 2 Pan, 1.0 m
Radar Cross Section
0.072 m², Medium (>0.1 m² and < 1m²)

Expand to show TLE details & history
Last TLE update: 15 hours ago

TLE from 15 hours ago
0 FLOCK 4G 5
1 62663U 25009BG  26035.19417982  .00013131  00000-0  48568-3 0  9999
2 62663  97.4121 118.1638 0004517  73.6468 286.5268 15.27813484 58618
Epoch: 2026-02-04T04:39Z
TLE epoch observation values (Epoch: 2026-02-04T04:39:37.136Z)
Latitude
0.00001°
Longitude
-86.1052°
Altitude
484.57 km
Speed
7.624 km/s
True Right ascension
07h 52m 39s
True Declination
0° 00' 00"
Sunlit
Object was in full shadow at epoch
Visualization orbit readout
Latitude
Unknown
Longitude
Unknown
Altitude
Unknown
Speed
Unknown
Apparent Right ascension
Unknown
Apparent Declination
Unknown
Sunlit
N/A
Visualization observer readout
Local Sidereal Time
21:39:45
Azimuth
Unknown
Elevation
Unknown
Doppler factor
Unknown
Orbital elements
Apogee altitude
482.403 km
Perigee altitude
476.208 km
Semi-major axis
6,857.443 km
Eccentricity
0.00045
Inclination
97.4121°
RAAN
118.1638°
Arg. of periapsis
73.6468°
True anomaly
286.47717°
Mean anomaly
286.5268°
Eccentric anomaly
286.50199°
Mean motion
3.82208 °/min
Orbital period
94.19 mins
BSTAR
0.00048568
Loading maneuver chart data...
Computing Atmospheric mass density...
Loading historical data...
Loading historical data...
Loading historical data...
Loading historical data...
Loading historical data...
Loading historical data...
Loading historical data...

Documentation

Showing up to 5 results
|